sat.trackr.live / text

‹ back to catalog

STARLINK-35879

NORAD 66960 · 2025-288B

PAYLOAD ACTIVE UNKNOWN

§ Identity

Operator
Country
US
Launch date
2025-12-08
Launch site
AFETR
Launch vehicle
Mass (kg)
RCS (m²)

Purposes: comms

External: N2YO · Heavens-Above · Gunter

§ Orbital elements

Epoch: 2026-05-25T04:09:01.031904Z

Period
94.27 min
Inclination
43.0004°
Eccentricity
0.0000670
Mean motion
15.27584244 rev/d
Perigee alt
482.6 km
Apogee alt
483.5 km
Semi-major
6,861.2 km
B*
6.0563e-4
RAAN
311.5975°
Arg perigee
294.0864°
Mean anomaly
65.9918°
Rev number
2,698

§ Raw data

STARLINK-358791 66960U 25288B   26145.17292861  .00016443  00000+0  60563-3 0  99962 66960  43.0004 311.5975 0000670 294.0864  65.9918 15.27584244 26982

JSON: /api/v1/satellites/66960 · /tle

For live sub-satellite position, see the globe view (requires WebGL).

§ Visibility from observer

Set your observer location to see the next 7 days of passes ≥ 10°. The values pass through the URL so the page stays shareable.

No JS? Fill the form by hand. The geolocation button needs JavaScript.